Time,TemperatureF,DewpointF,PressureIn,WindDirection,WindDirectionDegrees,WindSpeedMPH,WindSpeedGustMPH,Humidity,HourlyPrecipIn,Conditions,Clouds,dailyrainin,SoftwareType,DateUTC
2013-05-10 00:00:00,58.1,48.4,30.15,SSE,152,0.0,0.0,70,0.00,,,0.00,WeatherCatV1.15B25,2013-05-10 04:00:00,
2013-05-10 00:01:00,58.1,48.4,30.15,SSE,152,0.0,0.0,70,0.00,,,0.00,WeatherCatV1.15B25,2013-05-10 04:01:00,
2013-05-10 00:06:00,58.2,48.5,30.16,SSE,152,0.0,0.0,70,0.00,,,0.00,WeatherCatV1.15B25,2013-05-10 04:06:00,
2013-05-10 00:11:00,58.1,48.0,30.16,SSE,152,0.0,0.0,69,0.00,,,0.00,WeatherCatV1.15B25,2013-05-10 04:11:00,
2013-05-10 00:13:00,58.1,48.0,30.17,SSE,152,0.0,2.0,69,0.00,,,0.00,WeatherCatV1.15B25,2013-05-10 04:13:00,
2013-05-10 00:18:00,58.3,48.2,30.17,SSE,152,0.0,0.0,69,0.00,,,0.00,WeatherCatV1.15B25,2013-05-10 04:18:00,
2013-05-10 00:23:00,58.4,48.3,30.17,SSE,152,0.0,1.0,69,0.00,,,0.00,WeatherCatV1.15B25,2013-05-10 04:23:00,
2013-05-10 00:28:00,58.4,48.3,30.17,SSE,152,0.0,2.0,69,0.00,,,0.00,WeatherCatV1.15B25,2013-05-10 04:28:00,
2013-05-10 00:33:00,58.6,48.5,30.18,SSE,152,0.0,0.0,69,0.00,,,0.00,WeatherCatV1.15B25,2013-05-10 04:33:00,
2013-05-10 00:38:00,58.6,48.5,30.18,SSE,152,0.0,0.0,69,0.00,,,0.00,WeatherCatV1.15B25,2013-05-10 04:38:00,
2013-05-10 00:43:00,58.7,48.6,30.18,SSE,152,0.0,1.0,69,0.00,,,0.00,WeatherCatV1.15B25,2013-05-10 04:43:00,
2013-05-10 00:48:00,58.7,48.2,30.18,SSE,152,0.0,0.0,68,0.00,,,0.00,WeatherCatV1.15B25,2013-05-10 04:48:00,
2013-05-10 00:53:00,58.7,48.6,30.18,SSE,152,0.0,1.0,69,0.00,,,0.00,WeatherCatV1.15B25,2013-05-10 04:53:00,
2013-05-10 00:58:00,59.0,48.5,30.18,SSE,152,0.0,0.0,68,0.00,,,0.00,WeatherCatV1.15B25,2013-05-10 04:58:00,
2013-05-10 01:03:00,59.0,48.5,30.18,SSE,152,0.0,0.0,68,0.00,,,0.00,WeatherCatV1.15B25,2013-05-10 05:03:00,
2013-05-10 01:08:00,59.0,48.8,30.17,SSE,152,0.0,0.0,69,0.00,,,0.00,WeatherCatV1.15B25,2013-05-10 05:08:00,
2013-05-10 01:13:00,59.0,48.8,30.17,SSE,152,0.0,0.0,69,0.00,,,0.00,WeatherCatV1.15B25,2013-05-10 05:13:00,
2013-05-10 01:18:00,58.5,48.4,30.17,SSE,152,0.0,0.0,69,0.00,,,0.00,WeatherCatV1.15B25,2013-05-10 05:18:00,
2013-05-10 01:23:00,58.1,48.4,30.17,SSE,152,0.0,0.0,70,0.00,,,0.00,WeatherCatV1.15B25,2013-05-10 05:23:00,
2013-05-10 01:28:00,57.8,48.5,30.17,SSE,152,0.0,1.0,71,0.00,,,0.00,WeatherCatV1.15B25,2013-05-10 05:28:00,
2013-05-10 01:33:00,57.7,48.4,30.17,SSE,152,0.0,1.0,71,0.00,,,0.00,WeatherCatV1.15B25,2013-05-10 05:33:00,
2013-05-10 01:38:00,57.6,48.3,30.17,SSE,152,0.0,1.0,71,0.00,,,0.00,WeatherCatV1.15B25,2013-05-10 05:38:00,
2013-05-10 01:43:00,57.7,48.7,30.17,SSE,152,0.0,0.0,72,0.00,,,0.00,WeatherCatV1.15B25,2013-05-10 05:43:00,
2013-05-10 01:48:00,57.9,48.9,30.17,SSE,152,0.0,2.0,72,0.00,,,0.00,WeatherCatV1.15B25,2013-05-10 05:48:00,
2013-05-10 01:53:00,57.9,49.3,30.16,SSE,152,0.0,1.0,73,0.00,,,0.00,WeatherCatV1.15B25,2013-05-10 05:53:00,
2013-05-10 01:58:00,58.2,50.3,30.16,SSE,152,0.0,0.0,75,0.00,,,0.00,WeatherCatV1.15B25,2013-05-10 05:58:00,
2013-05-10 02:03:00,58.3,50.4,30.16,SSE,152,0.0,0.0,75,0.00,,,0.00,WeatherCatV1.15B25,2013-05-10 06:03:00,
2013-05-10 02:08:00,58.4,50.5,30.16,SSE,152,0.0,1.0,75,0.00,,,0.00,WeatherCatV1.15B25,2013-05-10 06:08:00,
2013-05-10 02:13:00,58.8,51.2,30.15,SSE,152,0.0,0.0,76,0.00,,,0.00,WeatherCatV1.15B25,2013-05-10 06:13:00,
2013-05-10 02:18:00,59.0,51.4,30.15,SSE,152,0.0,2.0,76,0.00,,,0.00,WeatherCatV1.15B25,2013-05-10 06:18:00,
2013-05-10 02:23:00,59.5,51.9,30.15,SSE,152,0.0,1.0,76,0.00,,,0.00,WeatherCatV1.15B25,2013-05-10 06:23:00,
2013-05-10 02:28:00,59.6,52.0,30.15,SSE,152,0.0,0.0,76,0.00,,,0.00,WeatherCatV1.15B25,2013-05-10 06:28:00,
2013-05-10 02:33:00,59.6,52.0,30.15,SSE,152,0.0,1.0,76,0.00,,,0.00,WeatherCatV1.15B25,2013-05-10 06:33:00,
2013-05-10 02:38:00,59.4,51.8,30.15,SSE,152,0.0,0.0,76,0.00,,,0.00,WeatherCatV1.15B25,2013-05-10 06:38:00,
2013-05-10 02:43:00,59.1,51.9,30.14,SSE,152,0.0,0.0,77,0.00,,,0.00,WeatherCatV1.15B25,2013-05-10 06:43:00,
2013-05-10 02:48:00,59.0,51.8,30.14,SSE,152,0.0,0.0,77,0.00,,,0.00,WeatherCatV1.15B25,2013-05-10 06:48:00,
2013-05-10 02:53:00,59.0,52.1,30.14,SSE,152,0.0,0.0,78,0.00,,,0.00,WeatherCatV1.15B25,2013-05-10 06:53:00,
2013-05-10 02:58:00,59.0,52.8,30.14,SSE,152,0.0,0.0,80,0.00,,,0.00,WeatherCatV1.15B25,2013-05-10 06:58:00,
2013-05-10 03:03:00,58.7,51.9,30.14,SSE,152,0.0,0.0,78,0.00,,,0.00,WeatherCatV1.15B25,2013-05-10 07:03:00,
2013-05-10 03:08:00,58.9,51.7,30.14,SSE,152,0.0,0.0,77,0.00,,,0.00,WeatherCatV1.15B25,2013-05-10 07:08:00,
2013-05-10 03:13:00,59.0,51.4,30.14,West,269,0.0,0.0,76,0.00,,,0.00,WeatherCatV1.15B25,2013-05-10 07:13:00,
2013-05-10 03:18:00,59.2,51.6,30.14,West,269,0.0,0.0,76,0.00,,,0.00,WeatherCatV1.15B25,2013-05-10 07:18:00,
2013-05-10 03:23:00,59.2,51.6,30.14,West,269,0.0,0.0,76,0.00,,,0.00,WeatherCatV1.15B25,2013-05-10 07:23:00,
2013-05-10 03:28:00,59.0,51.8,30.14,West,268,0.0,1.0,77,0.00,,,0.00,WeatherCatV1.15B25,2013-05-10 07:28:00,
2013-05-10 03:33:00,59.0,51.8,30.14,West,268,0.0,0.0,77,0.00,,,0.00,WeatherCatV1.15B25,2013-05-10 07:33:00,
2013-05-10 03:38:00,58.9,51.7,30.13,West,269,0.0,0.0,77,0.00,,,0.00,WeatherCatV1.15B25,2013-05-10 07:38:00,
2013-05-10 03:43:00,58.5,50.6,30.14,West,268,0.0,1.0,75,0.00,,,0.00,WeatherCatV1.15B25,2013-05-10 07:43:00,
2013-05-10 03:48:00,58.4,50.1,30.13,West,268,0.0,1.0,74,0.00,,,0.00,WeatherCatV1.15B25,2013-05-10 07:48:00,
2013-05-10 03:53:00,58.7,50.4,30.13,West,269,0.0,0.0,74,0.00,,,0.00,WeatherCatV1.15B25,2013-05-10 07:53:00,
2013-05-10 03:58:00,59.0,50.7,30.13,SSW,213,1.0,3.0,74,0.00,,,0.00,WeatherCatV1.15B25,2013-05-10 07:58:00,
2013-05-10 04:03:00,59.0,50.7,30.13,SSW,213,0.0,0.0,74,0.00,,,0.00,WeatherCatV1.15B25,2013-05-10 08:03:00,
2013-05-10 04:05:00,59.0,50.4,30.13,SSW,213,0.0,2.0,73,0.00,,,0.00,WeatherCatV1.15B25,2013-05-10 08:05:00,
2013-05-10 04:10:00,59.0,50.4,30.13,SSW,213,0.0,2.0,73,0.00,,,0.00,WeatherCatV1.15B25,2013-05-10 08:10:00,
2013-05-10 04:15:00,59.0,50.4,30.13,SSW,211,0.0,0.0,73,0.00,,,0.00,WeatherCatV1.15B25,2013-05-10 08:15:00,
2013-05-10 04:16:00,59.0,50.0,30.13,SW,219,1.0,1.0,72,0.00,,,0.00,WeatherCatV1.15B25,2013-05-10 08:16:00,
2013-05-10 04:21:00,59.1,50.5,30.13,West,270,0.0,0.0,73,0.00,,,0.00,WeatherCatV1.15B25,2013-05-10 08:21:00,
2013-05-10 04:26:00,59.2,50.2,30.12,West,269,0.0,0.0,72,0.00,,,0.00,WeatherCatV1.15B25,2013-05-10 08:26:00,
2013-05-10 04:31:00,59.0,50.4,30.13,West,270,0.0,0.0,73,0.00,,,0.00,WeatherCatV1.15B25,2013-05-10 08:31:00,
2013-05-10 04:36:00,59.0,50.7,30.12,WNW,302,0.0,4.0,74,0.00,,,0.00,WeatherCatV1.15B25,2013-05-10 08:36:00,
2013-05-10 04:41:00,59.0,51.1,30.12,WNW,302,1.0,1.0,75,0.00,,,0.00,WeatherCatV1.15B25,2013-05-10 08:41:00,
2013-05-10 04:46:00,59.0,51.1,30.12,WNW,286,0.0,0.0,75,0.00,,,0.00,WeatherCatV1.15B25,2013-05-10 08:46:00,
2013-05-10 04:51:00,59.0,51.1,30.12,WNW,286,0.0,0.0,75,0.00,,,0.00,WeatherCatV1.15B25,2013-05-10 08:51:00,
2013-05-10 04:56:00,59.0,51.1,30.11,WNW,286,0.0,0.0,75,0.00,,,0.00,WeatherCatV1.15B25,2013-05-10 08:56:00,
2013-05-10 05:01:00,59.0,51.4,30.11,WNW,286,0.0,0.0,76,0.00,,,0.00,WeatherCatV1.15B25,2013-05-10 09:01:00,
2013-05-10 05:06:00,59.0,51.4,30.11,WNW,286,0.0,0.0,76,0.00,,,0.00,WeatherCatV1.15B25,2013-05-10 09:06:00,
2013-05-10 05:11:00,59.0,51.8,30.11,WNW,286,0.0,1.0,77,0.00,,,0.00,WeatherCatV1.15B25,2013-05-10 09:11:00,
2013-05-10 05:16:00,58.6,51.8,30.11,WNW,286,0.0,0.0,78,0.00,,,0.00,WeatherCatV1.15B25,2013-05-10 09:16:00,
2013-05-10 05:21:00,58.4,51.6,30.11,WNW,298,0.0,0.0,78,0.00,,,0.00,WeatherCatV1.15B25,2013-05-10 09:21:00,
2013-05-10 05:26:00,58.4,51.6,30.11,WNW,296,0.0,0.0,78,0.00,,,0.00,WeatherCatV1.15B25,2013-05-10 09:26:00,
2013-05-10 05:31:00,58.4,51.6,30.11,WNW,296,0.0,0.0,78,0.00,,,0.00,WeatherCatV1.15B25,2013-05-10 09:31:00,
2013-05-10 05:36:00,58.4,51.9,30.11,WNW,296,0.0,0.0,79,0.00,,,0.00,WeatherCatV1.15B25,2013-05-10 09:36:00,
2013-05-10 05:41:00,58.2,51.7,30.11,WNW,296,0.0,0.0,79,0.00,,,0.00,WeatherCatV1.15B25,2013-05-10 09:41:00,
2013-05-10 05:46:00,58.3,51.8,30.11,WNW,296,0.0,0.0,79,0.00,,,0.00,WeatherCatV1.15B25,2013-05-10 09:46:00,
2013-05-10 05:51:00,58.5,52.0,30.11,WNW,296,2.0,2.0,79,0.00,,,0.00,WeatherCatV1.15B25,2013-05-10 09:51:00,
2013-05-10 05:56:00,58.5,52.0,30.11,WNW,296,1.0,1.0,79,0.00,,,0.00,WeatherCatV1.15B25,2013-05-10 09:56:00,
2013-05-10 06:01:00,58.5,51.7,30.11,SSW,202,0.0,1.0,78,0.00,,,0.00,WeatherCatV1.15B25,2013-05-10 10:01:00,
2013-05-10 06:06:00,58.5,51.7,30.11,SSW,202,0.0,1.0,78,0.00,,,0.00,WeatherCatV1.15B25,2013-05-10 10:06:00,
2013-05-10 06:11:00,58.5,51.7,30.11,SSW,202,0.0,0.0,78,0.00,,,0.00,WeatherCatV1.15B25,2013-05-10 10:11:00,
2013-05-10 06:16:00,58.6,51.8,30.11,SSW,202,0.0,0.0,78,0.00,,,0.00,WeatherCatV1.15B25,2013-05-10 10:16:00,
2013-05-10 06:21:00,58.4,51.9,30.11,SSW,202,0.0,0.0,79,0.00,,,0.00,WeatherCatV1.15B25,2013-05-10 10:21:00,
2013-05-10 06:26:00,58.1,52.0,30.11,SSW,202,0.0,0.0,80,0.00,,,0.00,WeatherCatV1.15B25,2013-05-10 10:26:00,
2013-05-10 06:31:00,57.6,51.5,30.11,SSW,202,0.0,0.0,80,0.00,,,0.00,WeatherCatV1.15B25,2013-05-10 10:31:00,
2013-05-10 06:36:00,57.2,51.4,30.11,SSW,202,0.0,0.0,81,0.00,,,0.00,WeatherCatV1.15B25,2013-05-10 10:36:00,
2013-05-10 06:41:00,57.0,51.6,30.11,SSW,202,0.0,0.0,82,0.00,,,0.00,WeatherCatV1.15B25,2013-05-10 10:41:00,
2013-05-10 06:46:00,57.0,51.6,30.11,SSW,202,0.0,0.0,82,0.00,,,0.00,WeatherCatV1.15B25,2013-05-10 10:46:00,
2013-05-10 06:51:00,57.1,51.3,30.11,SSW,202,0.0,0.0,81,0.00,,,0.00,WeatherCatV1.15B25,2013-05-10 10:51:00,
2013-05-10 06:56:00,57.1,51.3,30.11,SSW,202,0.0,0.0,81,0.00,,,0.00,WeatherCatV1.15B25,2013-05-10 10:56:00,
2013-05-10 07:01:00,57.1,51.3,30.12,SSW,202,0.0,0.0,81,0.00,,,0.00,WeatherCatV1.15B25,2013-05-10 11:01:00,
2013-05-10 07:06:00,57.4,51.6,30.12,SSW,202,0.0,0.0,81,0.00,,,0.00,WeatherCatV1.15B25,2013-05-10 11:06:00,
2013-05-10 07:11:00,57.7,51.6,30.12,SSW,202,0.0,0.0,80,0.00,,,0.00,WeatherCatV1.15B25,2013-05-10 11:11:00,
2013-05-10 07:16:00,57.8,51.7,30.12,SSW,202,0.0,0.0,80,0.00,,,0.00,WeatherCatV1.15B25,2013-05-10 11:16:00,
2013-05-10 07:21:00,57.9,51.8,30.11,SSW,202,0.0,0.0,80,0.00,,,0.00,WeatherCatV1.15B25,2013-05-10 11:21:00,
2013-05-10 07:26:00,58.0,51.9,30.11,SSW,202,0.0,0.0,80,0.00,,,0.00,WeatherCatV1.15B25,2013-05-10 11:26:00,
2013-05-10 07:31:00,58.2,51.7,30.10,SSW,202,0.0,0.0,79,0.00,,,0.00,WeatherCatV1.15B25,2013-05-10 11:31:00,
2013-05-10 07:36:00,58.3,51.8,30.11,SSW,202,0.0,0.0,79,0.00,,,0.00,WeatherCatV1.15B25,2013-05-10 11:36:00,
2013-05-10 07:41:00,58.6,51.4,30.11,SSW,202,0.0,0.0,77,0.00,,,0.00,WeatherCatV1.15B25,2013-05-10 11:41:00,
2013-05-10 07:46:00,58.8,51.6,30.11,SSW,202,0.0,0.0,77,0.00,,,0.00,WeatherCatV1.15B25,2013-05-10 11:46:00,
2013-05-10 07:51:00,59.0,51.8,30.11,SSW,202,0.0,0.0,77,0.00,,,0.00,WeatherCatV1.15B25,2013-05-10 11:51:00,
2013-05-10 07:56:00,59.0,51.4,30.11,SSW,202,0.0,0.0,76,0.00,,,0.00,WeatherCatV1.15B25,2013-05-10 11:56:00,
2013-05-10 08:01:00,59.2,51.6,30.11,SSW,202,0.0,0.0,76,0.00,,,0.00,WeatherCatV1.15B25,2013-05-10 12:01:00,
2013-05-10 08:06:00,59.4,51.8,30.11,SSW,202,0.0,0.0,76,0.00,,,0.00,WeatherCatV1.15B25,2013-05-10 12:06:00,
2013-05-10 08:11:00,59.6,52.4,30.11,SSW,202,0.0,0.0,77,0.00,,,0.00,WeatherCatV1.15B25,2013-05-10 12:11:00,
2013-05-10 08:16:00,59.7,52.5,30.11,WNW,288,0.0,0.0,77,0.00,,,0.00,WeatherCatV1.15B25,2013-05-10 12:16:00,
2013-05-10 08:21:00,59.9,52.3,30.11,NW,304,0.0,0.0,76,0.00,,,0.00,WeatherCatV1.15B25,2013-05-10 12:21:00,
2013-05-10 08:26:00,60.2,53.0,30.10,NW,311,2.0,2.0,77,0.00,,,0.00,WeatherCatV1.15B25,2013-05-10 12:26:00,
2013-05-10 08:31:00,60.4,52.8,30.11,NW,321,0.0,0.0,76,0.00,,,0.00,WeatherCatV1.15B25,2013-05-10 12:31:00,
2013-05-10 08:36:00,60.8,52.5,30.11,NW,321,0.0,0.0,74,0.00,,,0.00,WeatherCatV1.15B25,2013-05-10 12:36:00,
2013-05-10 08:41:00,61.1,53.5,30.11,NW,321,0.0,0.0,76,0.00,,,0.00,WeatherCatV1.15B25,2013-05-10 12:41:00,
2013-05-10 08:46:00,61.4,53.0,30.11,NW,322,0.0,1.0,74,0.00,,,0.00,WeatherCatV1.15B25,2013-05-10 12:46:00,
2013-05-10 08:51:00,61.5,53.5,30.11,NW,322,0.0,0.0,75,0.00,,,0.00,WeatherCatV1.15B25,2013-05-10 12:51:00,
2013-05-10 08:56:00,61.6,53.2,30.11,NW,322,0.0,0.0,74,0.00,,,0.00,WeatherCatV1.15B25,2013-05-10 12:56:00,
2013-05-10 09:01:00,61.8,53.8,30.11,SE,138,0.0,0.0,75,0.00,,,0.00,WeatherCatV1.15B25,2013-05-10 13:01:00,
2013-05-10 09:10:00,62.2,53.8,30.11,WSW,243,0.0,1.0,74,0.00,,,0.00,WeatherCatV1.15B25,2013-05-10 13:10:00,
2013-05-10 09:15:00,62.5,54.5,30.11,WNW,290,0.0,1.0,75,0.00,,,0.00,WeatherCatV1.15B25,2013-05-10 13:15:00,
2013-05-10 09:20:00,62.7,54.7,30.11,West,268,0.0,1.0,75,0.00,,,0.00,WeatherCatV1.15B25,2013-05-10 13:20:00,
2013-05-10 09:25:00,62.7,53.2,30.11,East,92,0.0,0.0,71,0.00,,,0.00,WeatherCatV1.15B25,2013-05-10 13:25:00,
2013-05-10 09:30:00,62.9,54.1,30.11,NW,324,0.0,0.0,73,0.00,,,0.00,WeatherCatV1.15B25,2013-05-10 13:30:00,
2013-05-10 09:35:00,63.2,52.9,30.11,ENE,72,0.0,3.0,69,0.00,,,0.00,WeatherCatV1.15B25,2013-05-10 13:35:00,
2013-05-10 09:40:00,63.7,52.5,30.10,South,170,3.0,4.0,67,0.00,,,0.00,WeatherCatV1.15B25,2013-05-10 13:40:00,
2013-05-10 09:45:00,64.3,53.1,30.10,SSW,209,1.0,2.0,67,0.00,,,0.00,WeatherCatV1.15B25,2013-05-10 13:45:00,
2013-05-10 09:50:00,65.0,53.8,30.10,SW,227,0.0,2.0,67,0.00,,,0.00,WeatherCatV1.15B25,2013-05-10 13:50:00,
2013-05-10 09:55:00,65.7,53.6,30.10,South,178,5.0,5.0,65,0.00,,,0.00,WeatherCatV1.15B25,2013-05-10 13:55:00,
2013-05-10 10:00:00,66.2,53.2,30.11,ESE,114,0.0,4.0,63,0.00,,,0.00,WeatherCatV1.15B25,2013-05-10 14:00:00,
2013-05-10 10:05:00,66.4,53.0,30.10,SSW,212,0.0,3.0,62,0.00,,,0.00,WeatherCatV1.15B25,2013-05-10 14:05:00,
2013-05-10 10:10:00,66.7,53.7,30.10,SW,216,0.0,6.0,63,0.00,,,0.00,WeatherCatV1.15B25,2013-05-10 14:10:00,
2013-05-10 10:15:00,67.1,54.5,30.10,WSW,258,0.0,2.0,64,0.00,,,0.00,WeatherCatV1.15B25,2013-05-10 14:15:00,
2013-05-10 10:20:00,67.5,54.5,30.09,SE,130,0.0,6.0,63,0.00,,,0.00,WeatherCatV1.15B25,2013-05-10 14:20:00,
2013-05-10 10:25:00,67.9,54.4,30.09,East,96,0.0,3.0,62,0.00,,,0.00,WeatherCatV1.15B25,2013-05-10 14:25:00,
2013-05-10 10:30:00,68.3,54.8,30.10,NNW,344,1.0,5.0,62,0.00,,,0.00,WeatherCatV1.15B25,2013-05-10 14:30:00,
2013-05-10 10:35:00,68.8,55.7,30.09,ENE,61,1.0,2.0,63,0.00,,,0.00,WeatherCatV1.15B25,2013-05-10 14:35:00,
2013-05-10 10:40:00,69.4,55.4,30.10,NE,40,1.0,15.0,61,0.00,,,0.00,WeatherCatV1.15B25,2013-05-10 14:40:00,
2013-05-10 10:45:00,69.7,55.6,30.10,NE,44,0.0,10.0,61,0.00,,,0.00,WeatherCatV1.15B25,2013-05-10 14:45:00,
2013-05-10 10:50:00,69.8,56.2,30.10,NW,313,3.0,7.0,62,0.00,,,0.00,WeatherCatV1.15B25,2013-05-10 14:50:00,
2013-05-10 10:55:00,69.4,55.8,30.09,ENE,61,3.0,10.0,62,0.00,,,0.00,WeatherCatV1.15B25,2013-05-10 14:55:00,
2013-05-10 11:00:00,69.2,55.6,30.09,South,173,2.0,8.0,62,0.00,,,0.00,WeatherCatV1.15B25,2013-05-10 15:00:00,
2013-05-10 11:05:00,69.3,56.2,30.09,NE,49,0.0,3.0,63,0.00,,,0.00,WeatherCatV1.15B25,2013-05-10 15:05:00,
2013-05-10 11:10:00,69.4,56.2,30.09,SSW,207,2.0,9.0,63,0.00,,,0.00,WeatherCatV1.15B25,2013-05-10 15:10:00,
2013-05-10 11:15:00,69.5,56.3,30.09,West,269,0.0,3.0,63,0.00,,,0.00,WeatherCatV1.15B25,2013-05-10 15:15:00,
2013-05-10 11:20:00,70.0,55.9,30.09,SSW,202,0.0,1.0,61,0.00,,,0.00,WeatherCatV1.15B25,2013-05-10 15:20:00,
2013-05-10 11:25:00,70.5,56.8,30.09,NW,307,1.0,6.0,62,0.00,,,0.00,WeatherCatV1.15B25,2013-05-10 15:25:00,
2013-05-10 11:30:00,71.1,56.5,30.09,SSW,194,2.0,6.0,60,0.00,,,0.00,WeatherCatV1.15B25,2013-05-10 15:30:00,
2013-05-10 11:35:00,71.4,56.8,30.10,WNW,294,0.0,4.0,60,0.00,,,0.00,WeatherCatV1.15B25,2013-05-10 15:35:00,
2013-05-10 11:40:00,71.6,57.0,30.10,SSW,205,0.0,6.0,60,0.00,,,0.00,WeatherCatV1.15B25,2013-05-10 15:40:00,
2013-05-10 11:45:00,71.7,57.5,30.10,NE,48,0.0,5.0,61,0.00,,,0.00,WeatherCatV1.15B25,2013-05-10 15:45:00,
2013-05-10 11:50:00,71.7,57.5,30.10,West,273,0.0,13.0,61,0.00,,,0.00,WeatherCatV1.15B25,2013-05-10 15:50:00,
2013-05-10 11:55:00,72.2,58.0,30.10,ESE,115,1.0,5.0,61,0.00,,,0.00,WeatherCatV1.15B25,2013-05-10 15:55:00,
2013-05-10 12:00:00,72.7,58.0,30.09,ENE,63,0.0,8.0,60,0.00,,,0.00,WeatherCatV1.15B25,2013-05-10 16:00:00,
2013-05-10 12:05:00,72.8,57.1,30.10,NW,318,3.0,12.0,58,0.00,,,0.00,WeatherCatV1.15B25,2013-05-10 16:05:00,
2013-05-10 12:10:00,73.0,57.3,30.09,West,273,1.0,9.0,58,0.00,,,0.00,WeatherCatV1.15B25,2013-05-10 16:10:00,
2013-05-10 12:15:00,73.6,57.4,30.09,WSW,246,3.0,7.0,57,0.00,,,0.00,WeatherCatV1.15B25,2013-05-10 16:15:00,
2013-05-10 12:20:00,73.8,56.6,30.09,SSW,206,9.0,9.0,55,0.00,,,0.00,WeatherCatV1.15B25,2013-05-10 16:20:00,
2013-05-10 12:25:00,73.0,55.4,30.09,SSW,195,4.0,13.0,54,0.00,,,0.00,WeatherCatV1.15B25,2013-05-10 16:25:00,
2013-05-10 12:30:00,73.0,55.4,30.09,West,261,4.0,7.0,54,0.00,,,0.00,WeatherCatV1.15B25,2013-05-10 16:30:00,
2013-05-10 12:35:00,73.6,55.4,30.08,NNW,338,0.0,5.0,53,0.00,,,0.00,WeatherCatV1.15B25,2013-05-10 16:35:00,
2013-05-10 12:40:00,74.2,56.0,30.08,NW,319,1.0,7.0,53,0.00,,,0.00,WeatherCatV1.15B25,2013-05-10 16:40:00,
2013-05-10 12:45:00,74.7,55.3,30.08,NNW,341,3.0,4.0,51,0.00,,,0.00,WeatherCatV1.15B25,2013-05-10 16:45:00,
2013-05-10 12:50:00,74.9,55.5,30.08,North,9,2.0,4.0,51,0.00,,,0.00,WeatherCatV1.15B25,2013-05-10 16:50:00,
2013-05-10 12:55:00,74.8,55.4,30.08,NW,314,5.0,8.0,51,0.00,,,0.00,WeatherCatV1.15B25,2013-05-10 16:55:00,
2013-05-10 13:00:00,75.0,55.1,30.08,ENE,59,0.0,1.0,50,0.00,,,0.00,WeatherCatV1.15B25,2013-05-10 17:00:00,
2013-05-10 13:05:00,75.1,54.1,30.08,WSW,251,3.0,14.0,48,0.00,,,0.00,WeatherCatV1.15B25,2013-05-10 17:05:00,
2013-05-10 13:10:00,74.6,54.2,30.07,East,90,0.0,5.0,49,0.00,,,0.00,WeatherCatV1.15B25,2013-05-10 17:10:00,
2013-05-10 13:15:00,74.4,54.5,30.07,South,183,0.0,10.0,50,0.00,,,0.00,WeatherCatV1.15B25,2013-05-10 17:15:00,
2013-05-10 13:20:00,74.2,54.3,30.07,West,269,1.0,7.0,50,0.00,,,0.00,WeatherCatV1.15B25,2013-05-10 17:20:00,
2013-05-10 13:25:00,74.6,54.7,30.06,WNW,287,1.0,7.0,50,0.00,,,0.00,WeatherCatV1.15B25,2013-05-10 17:25:00,
2013-05-10 13:30:00,75.3,55.4,30.06,West,276,1.0,2.0,50,0.00,,,0.00,WeatherCatV1.15B25,2013-05-10 17:30:00,
2013-05-10 13:35:00,75.5,55.0,30.06,West,277,2.0,9.0,49,0.00,,,0.00,WeatherCatV1.15B25,2013-05-10 17:35:00,
2013-05-10 13:40:00,75.3,55.4,30.07,WSW,237,2.0,10.0,50,0.00,,,0.00,WeatherCatV1.15B25,2013-05-10 17:40:00,
2013-05-10 13:45:00,75.1,54.6,30.07,South,190,3.0,12.0,49,0.00,,,0.00,WeatherCatV1.15B25,2013-05-10 17:45:00,
2013-05-10 13:50:00,74.6,54.7,30.06,North,0,0.0,11.0,50,0.00,,,0.00,WeatherCatV1.15B25,2013-05-10 17:50:00,
2013-05-10 13:55:00,74.1,54.8,30.06,WNW,283,2.0,14.0,51,0.00,,,0.00,WeatherCatV1.15B25,2013-05-10 17:55:00,
2013-05-10 14:00:00,73.5,55.8,30.06,WSW,248,5.0,12.0,54,0.00,,,0.00,WeatherCatV1.15B25,2013-05-10 18:00:00,
2013-05-10 14:05:00,73.5,55.3,30.06,South,187,0.0,10.0,53,0.00,,,0.00,WeatherCatV1.15B25,2013-05-10 18:05:00,
2013-05-10 14:10:00,73.8,57.1,30.06,NNE,30,0.0,7.0,56,0.00,,,0.00,WeatherCatV1.15B25,2013-05-10 18:10:00,
2013-05-10 14:15:00,73.8,56.1,30.06,SW,219,0.0,11.0,54,0.00,,,0.00,WeatherCatV1.15B25,2013-05-10 18:15:00,
2013-05-10 14:20:00,74.2,57.0,30.05,North,355,1.0,3.0,55,0.00,,,0.00,WeatherCatV1.15B25,2013-05-10 18:20:00,
2013-05-10 14:25:00,74.2,55.4,30.05,SW,236,3.0,10.0,52,0.00,,,0.00,WeatherCatV1.15B25,2013-05-10 18:25:00,
2013-05-10 14:30:00,73.8,56.1,30.05,West,261,1.0,12.0,54,0.00,,,0.00,WeatherCatV1.15B25,2013-05-10 18:30:00,
2013-05-10 14:35:00,73.3,56.1,30.05,West,279,1.0,1.0,55,0.00,,,0.00,WeatherCatV1.15B25,2013-05-10 18:35:00,
2013-05-10 14:40:00,72.9,55.3,30.04,WSW,242,4.0,8.0,54,0.00,,,0.00,WeatherCatV1.15B25,2013-05-10 18:40:00,
2013-05-10 14:45:00,72.6,55.5,30.04,South,181,0.0,9.0,55,0.00,,,0.00,WeatherCatV1.15B25,2013-05-10 18:45:00,
2013-05-10 14:50:00,72.1,56.5,30.05,WNW,285,2.0,7.0,58,0.00,,,0.00,WeatherCatV1.15B25,2013-05-10 18:50:00,
2013-05-10 14:55:00,71.7,56.6,30.05,East,79,0.0,4.0,59,0.00,,,0.00,WeatherCatV1.15B25,2013-05-10 18:55:00,
2013-05-10 15:00:00,71.8,56.2,30.04,WSW,256,0.0,9.0,58,0.00,,,0.00,WeatherCatV1.15B25,2013-05-10 19:00:00,
2013-05-10 15:05:00,72.2,57.1,30.04,WSW,249,1.0,10.0,59,0.00,,,0.00,WeatherCatV1.15B25,2013-05-10 19:05:00,
2013-05-10 15:10:00,72.3,56.7,30.04,WSW,250,1.0,7.0,58,0.00,,,0.00,WeatherCatV1.15B25,2013-05-10 19:10:00,
2013-05-10 15:15:00,71.9,56.3,30.04,South,173,0.0,7.0,58,0.00,,,0.00,WeatherCatV1.15B25,2013-05-10 19:15:00,
2013-05-10 15:20:00,71.3,56.7,30.04,North,0,3.0,4.0,60,0.00,,,0.00,WeatherCatV1.15B25,2013-05-10 19:20:00,
2013-05-10 15:25:00,71.1,57.0,30.04,SSE,167,3.0,3.0,61,0.00,,,0.00,WeatherCatV1.15B25,2013-05-10 19:25:00,
2013-05-10 15:30:00,70.8,57.1,30.03,SW,221,3.0,6.0,62,0.00,,,0.00,WeatherCatV1.15B25,2013-05-10 19:30:00,
2013-05-10 15:35:00,70.6,56.9,30.03,NW,315,0.0,6.0,62,0.00,,,0.00,WeatherCatV1.15B25,2013-05-10 19:35:00,
2013-05-10 15:40:00,70.6,56.5,30.03,SW,229,0.0,7.0,61,0.00,,,0.00,WeatherCatV1.15B25,2013-05-10 19:40:00,
2013-05-10 15:45:00,70.4,56.7,30.03,NE,36,0.0,4.0,62,0.00,,,0.00,WeatherCatV1.15B25,2013-05-10 19:45:00,
2013-05-10 15:50:00,70.1,56.5,30.02,ENE,57,1.0,9.0,62,0.00,,,0.00,WeatherCatV1.15B25,2013-05-10 19:50:00,
2013-05-10 15:55:00,69.9,56.3,30.02,WSW,251,3.0,7.0,62,0.00,,,0.00,WeatherCatV1.15B25,2013-05-10 19:55:00,
2013-05-10 16:00:00,69.9,57.2,30.02,SW,225,9.0,10.0,64,0.00,,,0.00,WeatherCatV1.15B25,2013-05-10 20:00:00,
2013-05-10 16:05:00,70.0,56.8,30.02,ESE,106,1.0,5.0,63,0.00,,,0.00,WeatherCatV1.15B25,2013-05-10 20:05:00,
2013-05-10 16:10:00,70.1,56.9,30.02,WSW,254,3.0,6.0,63,0.00,,,0.00,WeatherCatV1.15B25,2013-05-10 20:10:00,
2013-05-10 16:15:00,70.0,56.8,30.02,SSE,160,2.0,4.0,63,0.00,,,0.00,WeatherCatV1.15B25,2013-05-10 20:15:00,
2013-05-10 16:20:00,69.8,56.6,30.02,NNW,341,6.0,9.0,63,0.00,,,0.00,WeatherCatV1.15B25,2013-05-10 20:20:00,
2013-05-10 16:25:00,69.6,56.4,30.02,South,187,3.0,4.0,63,0.00,,,0.00,WeatherCatV1.15B25,2013-05-10 20:25:00,
2013-05-10 16:30:00,69.4,56.7,30.01,WNW,284,2.0,6.0,64,0.00,,,0.00,WeatherCatV1.15B25,2013-05-10 20:30:00,
2013-05-10 16:35:00,69.2,56.5,30.01,West,276,3.0,9.0,64,0.00,,,0.00,WeatherCatV1.15B25,2013-05-10 20:35:00,
2013-05-10 16:40:00,69.0,56.7,30.01,NNW,340,0.0,4.0,65,0.00,,,0.00,WeatherCatV1.15B25,2013-05-10 20:40:00,
2013-05-10 16:45:00,69.0,56.3,30.01,SE,126,0.0,8.0,64,0.00,,,0.00,WeatherCatV1.15B25,2013-05-10 20:45:00,
2013-05-10 16:50:00,69.0,56.3,30.01,WNW,293,2.0,11.0,64,0.00,,,0.00,WeatherCatV1.15B25,2013-05-10 20:50:00,
2013-05-10 16:55:00,68.9,55.8,30.01,South,174,0.0,5.0,63,0.00,,,0.00,WeatherCatV1.15B25,2013-05-10 20:55:00,
2013-05-10 17:00:00,68.9,55.8,30.01,NNE,24,0.0,5.0,63,0.00,,,0.00,WeatherCatV1.15B25,2013-05-10 21:00:00,
2013-05-10 17:05:00,68.9,55.8,30.02,NW,304,0.0,3.0,63,0.00,,,0.00,WeatherCatV1.15B25,2013-05-10 21:05:00,
2013-05-10 17:10:00,68.8,56.1,30.02,SSE,153,0.0,7.0,64,0.00,,,0.00,WeatherCatV1.15B25,2013-05-10 21:10:00,
2013-05-10 17:15:00,68.5,55.4,30.02,WSW,237,0.0,10.0,63,0.00,,,0.00,WeatherCatV1.15B25,2013-05-10 21:15:00,
2013-05-10 17:20:00,68.2,55.5,30.02,West,264,4.0,4.0,64,0.00,,,0.00,WeatherCatV1.15B25,2013-05-10 21:20:00,
2013-05-10 17:25:00,67.8,55.2,30.02,North,5,0.0,3.0,64,0.00,,,0.00,WeatherCatV1.15B25,2013-05-10 21:25:00,
2013-05-10 17:30:00,67.5,55.3,30.02,SSW,200,0.0,7.0,65,0.00,,,0.00,WeatherCatV1.15B25,2013-05-10 21:30:00,
2013-05-10 17:35:00,67.2,55.4,30.02,SSE,165,0.0,1.0,66,0.00,,,0.00,WeatherCatV1.15B25,2013-05-10 21:35:00,
2013-05-10 17:40:00,67.0,55.3,30.02,SSE,159,0.0,0.0,66,0.00,,,0.00,WeatherCatV1.15B25,2013-05-10 21:40:00,
2013-05-10 17:45:00,66.8,55.5,30.02,SW,230,3.0,5.0,67,0.00,,,0.00,WeatherCatV1.15B25,2013-05-10 21:45:00,
2013-05-10 17:50:00,66.5,55.6,30.02,NNW,337,2.0,4.0,68,0.00,,,0.00,WeatherCatV1.15B25,2013-05-10 21:50:00,
2013-05-10 17:55:00,66.2,55.7,30.02,West,269,0.0,3.0,69,0.00,,,0.00,WeatherCatV1.15B25,2013-05-10 21:55:00,
2013-05-10 17:58:00,66.0,55.9,30.02,West,263,0.0,5.0,70,0.00,,,0.00,WeatherCatV1.15B25,2013-05-10 21:58:00,
2013-05-10 18:03:00,65.8,55.7,30.02,East,100,4.0,7.0,70,0.00,,,0.00,WeatherCatV1.15B25,2013-05-10 22:03:00,
2013-05-10 18:08:00,65.6,55.5,30.02,NW,304,2.0,2.0,70,0.00,,,0.00,WeatherCatV1.15B25,2013-05-10 22:08:00,
2013-05-10 18:13:00,65.3,55.6,30.02,NW,306,0.0,1.0,71,0.00,,,0.00,WeatherCatV1.15B25,2013-05-10 22:13:00,
2013-05-10 18:18:00,65.1,55.5,30.02,SSE,163,0.0,1.0,71,0.00,,,0.00,WeatherCatV1.15B25,2013-05-10 22:18:00,
2013-05-10 18:23:00,64.8,55.6,30.02,NNW,329,0.0,5.0,72,0.00,,,0.00,WeatherCatV1.15B25,2013-05-10 22:23:00,
2013-05-10 18:28:00,64.6,55.4,30.02,ENE,76,2.0,2.0,72,0.00,,,0.00,WeatherCatV1.15B25,2013-05-10 22:28:00,
2013-05-10 18:33:00,64.4,55.5,30.02,SW,222,0.0,1.0,73,0.00,,,0.00,WeatherCatV1.15B25,2013-05-10 22:33:00,
2013-05-10 18:38:00,64.2,55.7,30.02,SSE,166,1.0,4.0,74,0.00,,,0.00,WeatherCatV1.15B25,2013-05-10 22:38:00,
2013-05-10 18:43:00,63.9,55.8,30.02,WSW,252,0.0,1.0,75,0.00,,,0.00,WeatherCatV1.15B25,2013-05-10 22:43:00,
2013-05-10 18:48:00,63.8,55.7,30.02,West,267,0.0,0.0,75,0.00,,,0.00,WeatherCatV1.15B25,2013-05-10 22:48:00,
2013-05-10 18:53:00,63.6,55.5,30.01,NW,316,0.0,1.0,75,0.00,,,0.00,WeatherCatV1.15B25,2013-05-10 22:53:00,
2013-05-10 18:58:00,63.5,55.8,30.01,WSW,238,0.0,5.0,76,0.00,,,0.00,WeatherCatV1.15B25,2013-05-10 22:58:00,
2013-05-10 19:03:00,63.4,55.3,30.01,SE,135,0.0,1.0,75,0.00,,,0.00,WeatherCatV1.15B25,2013-05-10 23:03:00,
2013-05-10 19:08:00,63.2,55.1,30.01,SE,134,0.0,1.0,75,0.00,,,0.00,WeatherCatV1.15B25,2013-05-10 23:08:00,
2013-05-10 19:13:00,63.1,54.7,30.01,North,350,0.0,5.0,74,0.00,,,0.00,WeatherCatV1.15B25,2013-05-10 23:13:00,
2013-05-10 19:18:00,62.9,54.5,30.01,West,264,2.0,2.0,74,0.00,,,0.00,WeatherCatV1.15B25,2013-05-10 23:18:00,
2013-05-10 19:23:00,62.8,54.8,30.01,NW,312,0.0,1.0,75,0.00,,,0.00,WeatherCatV1.15B25,2013-05-10 23:23:00,
2013-05-10 19:28:00,62.6,54.6,30.01,WSW,243,1.0,5.0,75,0.00,,,0.00,WeatherCatV1.15B25,2013-05-10 23:28:00,
2013-05-10 19:29:00,62.6,54.2,30.00,West,277,0.0,5.0,74,0.00,,,0.00,WeatherCatV1.15B25,2013-05-10 23:29:00,
2013-05-10 19:34:00,62.5,54.8,30.00,West,271,0.0,0.0,76,0.00,,,0.00,WeatherCatV1.15B25,2013-05-10 23:34:00,
2013-05-10 19:39:00,62.3,54.3,30.01,SW,221,0.0,1.0,75,0.00,,,0.00,WeatherCatV1.15B25,2013-05-10 23:39:00,
2013-05-10 19:44:00,62.1,54.4,30.01,WSW,249,0.0,3.0,76,0.00,,,0.00,WeatherCatV1.15B25,2013-05-10 23:44:00,
2013-05-10 19:49:00,61.9,54.2,30.01,NNE,17,0.0,0.0,76,0.00,,,0.00,WeatherCatV1.15B25,2013-05-10 23:49:00,
2013-05-10 19:54:00,61.8,54.2,30.01,SSE,158,0.0,0.0,76,0.00,,,0.00,WeatherCatV1.15B25,2013-05-10 23:54:00,
2013-05-10 19:59:00,61.7,54.4,30.01,South,190,0.0,2.0,77,0.00,,,0.00,WeatherCatV1.15B25,2013-05-10 23:59:00,
2013-05-10 20:04:00,61.6,54.0,30.01,South,186,0.0,0.0,76,0.00,,,0.00,WeatherCatV1.15B25,2013-05-11 00:04:00,
2013-05-10 20:09:00,61.5,53.9,30.01,South,180,0.0,0.0,76,0.00,,,0.00,WeatherCatV1.15B25,2013-05-11 00:09:00,
2013-05-10 20:14:00,61.4,54.1,30.01,SSW,198,0.0,0.0,77,0.00,,,0.00,WeatherCatV1.15B25,2013-05-11 00:14:00,
2013-05-10 20:19:00,61.3,53.7,30.01,SE,138,0.0,1.0,76,0.00,,,0.00,WeatherCatV1.15B25,2013-05-11 00:19:00,
2013-05-10 20:24:00,61.2,53.9,29.99,NE,45,0.0,4.0,77,0.00,,,0.00,WeatherCatV1.15B25,2013-05-11 00:24:00,
2013-05-10 20:29:00,61.0,54.4,30.00,SE,145,0.0,1.0,79,0.00,,,0.00,WeatherCatV1.15B25,2013-05-11 00:29:00,
2013-05-10 20:34:00,60.9,54.3,30.01,South,169,0.0,1.0,79,0.00,,,0.00,WeatherCatV1.15B25,2013-05-11 00:34:00,
2013-05-10 20:39:00,60.8,54.2,30.00,ENE,67,0.0,1.0,79,0.00,,,0.00,WeatherCatV1.15B25,2013-05-11 00:39:00,
2013-05-10 20:44:00,60.6,54.0,30.01,South,178,0.0,0.0,79,0.00,,,0.00,WeatherCatV1.15B25,2013-05-11 00:44:00,
2013-05-10 20:49:00,60.6,54.0,30.02,NW,323,0.0,2.0,79,0.00,,,0.00,WeatherCatV1.15B25,2013-05-11 00:49:00,
2013-05-10 20:54:00,60.5,54.0,30.02,NW,325,0.0,1.0,79,0.00,,,0.00,WeatherCatV1.15B25,2013-05-11 00:54:00,
2013-05-10 20:59:00,60.4,54.2,30.02,WSW,246,0.0,1.0,80,0.00,,,0.00,WeatherCatV1.15B25,2013-05-11 00:59:00,
2013-05-10 21:04:00,60.3,54.1,30.02,ENE,57,0.0,1.0,80,0.00,,,0.00,WeatherCatV1.15B25,2013-05-11 01:04:00,
2013-05-10 21:09:00,60.2,54.0,30.02,ESE,110,0.0,2.0,80,0.00,,,0.00,WeatherCatV1.15B25,2013-05-11 01:09:00,
2013-05-10 21:14:00,60.1,54.2,30.02,ESE,109,0.0,1.0,81,0.00,,,0.00,WeatherCatV1.15B25,2013-05-11 01:14:00,
2013-05-10 21:19:00,60.0,54.5,30.02,WNW,284,2.0,2.0,82,0.00,,,0.00,WeatherCatV1.15B25,2013-05-11 01:19:00,
2013-05-10 21:24:00,60.0,54.5,30.02,WNW,285,0.0,0.0,82,0.00,,,0.00,WeatherCatV1.15B25,2013-05-11 01:24:00,
2013-05-10 21:29:00,60.0,54.5,30.01,SE,128,0.0,3.0,82,0.00,,,0.00,WeatherCatV1.15B25,2013-05-11 01:29:00,
2013-05-10 21:34:00,59.9,54.7,30.01,SE,128,0.0,0.0,83,0.00,,,0.00,WeatherCatV1.15B25,2013-05-11 01:34:00,
2013-05-10 21:39:00,59.8,54.6,30.02,WNW,291,0.0,0.0,83,0.00,,,0.00,WeatherCatV1.15B25,2013-05-11 01:39:00,
2013-05-10 21:44:00,59.7,54.9,30.02,WNW,294,0.0,1.0,84,0.00,,,0.00,WeatherCatV1.15B25,2013-05-11 01:44:00,
2013-05-10 21:49:00,59.6,54.8,30.02,NE,55,0.0,3.0,84,0.00,,,0.00,WeatherCatV1.15B25,2013-05-11 01:49:00,
2013-05-10 21:54:00,59.6,54.8,30.03,West,267,0.0,0.0,84,0.00,,,0.00,WeatherCatV1.15B25,2013-05-11 01:54:00,
2013-05-10 21:59:00,59.6,54.8,30.03,West,267,0.0,0.0,84,0.00,,,0.00,WeatherCatV1.15B25,2013-05-11 01:59:00,
2013-05-10 22:02:00,59.5,54.7,30.03,West,269,0.0,0.0,84,0.00,,,0.00,WeatherCatV1.15B25,2013-05-11 02:02:00,
2013-05-10 22:07:00,59.5,54.7,30.03,ESE,115,0.0,0.0,84,0.00,,,0.00,WeatherCatV1.15B25,2013-05-11 02:07:00,
2013-05-10 22:12:00,59.4,54.6,30.03,East,83,0.0,1.0,84,0.00,,,0.00,WeatherCatV1.15B25,2013-05-11 02:12:00,
2013-05-10 22:17:00,59.3,54.8,30.03,East,90,1.0,1.0,85,0.00,,,0.00,WeatherCatV1.15B25,2013-05-11 02:17:00,
2013-05-10 22:22:00,59.2,54.7,30.03,South,174,0.0,0.0,85,0.00,,,0.00,WeatherCatV1.15B25,2013-05-11 02:22:00,
2013-05-10 22:27:00,59.1,54.6,30.03,SE,142,0.0,2.0,85,0.00,,,0.00,WeatherCatV1.15B25,2013-05-11 02:27:00,
2013-05-10 22:32:00,59.0,54.5,30.03,East,85,0.0,0.0,85,0.00,,,0.00,WeatherCatV1.15B25,2013-05-11 02:32:00,
2013-05-10 22:37:00,59.0,54.5,30.03,South,183,0.0,2.0,85,0.00,,,0.00,WeatherCatV1.15B25,2013-05-11 02:37:00,
2013-05-10 22:42:00,59.0,54.8,30.03,East,93,0.0,0.0,86,0.00,,,0.00,WeatherCatV1.15B25,2013-05-11 02:42:00,
2013-05-10 22:47:00,59.0,54.5,30.03,WSW,257,0.0,0.0,85,0.00,,,0.00,WeatherCatV1.15B25,2013-05-11 02:47:00,
2013-05-10 22:52:00,59.0,54.5,30.03,WSW,257,0.0,0.0,85,0.00,,,0.00,WeatherCatV1.15B25,2013-05-11 02:52:00,
2013-05-10 22:57:00,59.0,54.5,30.03,WSW,257,0.0,1.0,85,0.00,,,0.00,WeatherCatV1.15B25,2013-05-11 02:57:00,
2013-05-10 23:02:00,59.0,54.5,30.03,WSW,258,0.0,4.0,85,0.00,,,0.00,WeatherCatV1.15B25,2013-05-11 03:02:00,
2013-05-10 23:07:00,59.0,54.5,30.03,WSW,258,0.0,0.0,85,0.00,,,0.00,WeatherCatV1.15B25,2013-05-11 03:07:00,
2013-05-10 23:12:00,59.0,54.5,30.03,West,267,0.0,0.0,85,0.00,,,0.00,WeatherCatV1.15B25,2013-05-11 03:12:00,
2013-05-10 23:17:00,59.0,54.8,30.02,West,267,0.0,0.0,86,0.00,,,0.00,WeatherCatV1.15B25,2013-05-11 03:17:00,
2013-05-10 23:22:00,59.0,54.8,30.02,WSW,246,1.0,2.0,86,0.00,,,0.00,WeatherCatV1.15B25,2013-05-11 03:22:00,
2013-05-10 23:27:00,59.0,54.8,30.03,WSW,238,0.0,3.0,86,0.00,,,0.00,WeatherCatV1.15B25,2013-05-11 03:27:00,
2013-05-10 23:32:00,59.0,54.8,30.03,WSW,238,0.0,0.0,86,0.00,,,0.00,WeatherCatV1.15B25,2013-05-11 03:32:00,
2013-05-10 23:37:00,59.0,54.8,30.03,WSW,239,0.0,0.0,86,0.00,,,0.00,WeatherCatV1.15B25,2013-05-11 03:37:00,
2013-05-10 23:42:00,59.0,54.5,30.03,ESE,118,0.0,1.0,85,0.00,,,0.00,WeatherCatV1.15B25,2013-05-11 03:42:00,
2013-05-10 23:47:00,59.0,54.5,30.03,SSW,205,0.0,0.0,85,0.00,,,0.00,WeatherCatV1.15B25,2013-05-11 03:47:00,
2013-05-10 23:52:00,59.0,54.5,30.03,West,270,0.0,1.0,85,0.00,,,0.00,WeatherCatV1.15B25,2013-05-11 03:52:00,
2013-05-10 23:57:00,59.0,54.2,30.03,NNW,335,2.0,2.0,84,0.00,,,0.00,WeatherCatV1.15B25,2013-05-11 03:57:00,